Orbital Elements
Epoch 2016 July 31.0 TT = JDT 2457600.5
T 2016 July 30.23264 TT MPCW
q 3.6845321 (2000.0) P Q
z -0.0004781 Peri. 348.48552 -0.68039429 -0.49113745
+/-0.0000008 Node 139.88383 +0.72138565 -0.57960046
e 1.0017617 Incl. 57.58091 +0.12909823 +0.65026711
From 555 observations 2015 Jan. 28-2017 June 16, mean residual 0".6.
|